Location: Burgerwiesen
(48.6500°N, 15.6167°E)
Time: 07:13:41
(UTC+00:00)

STARLINK-1241 - Visible Passes

Search period start: 11 August 2020 00:00
Search period end: 21 August 2020 00:00
Orbit: 548 x 550 km, 53.0° (Epoch: 11 August)

Date Brightness Start Highest point End Pass type
(mag) Time Alt. Az. Time Alt. Az. Time Alt. Az.
11 Aug 4.6 20:09:35 10° WNW 20:13:35 45° N 20:17:18 12° ENE visible
11 Aug 3.9 21:49:20 10° WNW 21:52:55 64° NW 21:52:55 64° NW visible
12 Aug 4.5 20:04:08 10° WNW 20:08:10 47° N 20:11:33 14° ENE visible
12 Aug 4.1 21:43:50 10° WNW 21:47:10 56° WNW 21:47:10 56° WNW visible
13 Aug 4.4 19:58:41 10° WNW 20:02:44 49° N 20:05:50 16° E visible
13 Aug 4.3 21:38:21 10° WNW 21:41:28 48° W 21:41:28 48° W visible
14 Aug 4.2 19:53:13 10° WNW 19:57:18 54° NNE 20:00:11 18° E visible
14 Aug 4.5 21:32:53 10° WNW 21:35:48 40° W 21:35:48 40° W visible
15 Aug 4.0 19:47:44 10° WNW 19:51:51 60° NNE 19:54:33 20° E visible
15 Aug 4.8 21:27:26 10° WNW 21:30:11 34° W 21:30:11 34° W visible
16 Aug 3.8 19:42:15 10° WNW 19:46:24 68° NNE 19:48:58 22° E visible
16 Aug 5.1 21:22:02 10° WNW 21:24:36 28° WSW 21:24:36 28° WSW visible
17 Aug 3.6 19:36:47 10° WNW 19:40:56 80° NNE 19:43:25 23° ESE visible
17 Aug 5.3 21:16:42 10° W 21:19:03 24° WSW 21:19:03 24° WSW visible
18 Aug 3.6 19:31:18 10° WNW 19:35:28 87° SSW 19:37:55 24° ESE visible
18 Aug 5.6 21:11:26 10° W 21:13:33 19° WSW 21:13:33 19° WSW visible
19 Aug 3.6 19:25:50 10° WNW 19:29:58 72° SSW 19:32:28 23° SE visible
19 Aug 5.8 21:06:20 10° W 21:08:06 16° WSW 21:08:06 16° WSW visible
20 Aug 3.9 19:20:23 10° WNW 19:24:27 58° SSW 19:27:04 21° SE visible
20 Aug 6.1 21:01:31 10° WSW 21:02:42 12° WSW 21:02:42 12° WSW visible
